Regional Weather Roundup
Issued by NWS

Home | Current Version | Previous Version | Text Only | Print | Product List | Glossary Off
Versions: 1 2 3 4 5 6 7 8 9 10 11 12 13 14 15 16 17 18 19 20 21 22 23 24 25 26 27 28 29 30 31 32 33 34 35 36 37 38 39 40 41 42 43 44 45 46 47 48 49 50

000
ASUS43 KLSX 252207
RWRMO

WEATHER SUMMARY FOR MISSOURI
NATIONAL WEATHER SERVICE SPRINGFIELD MO
500 PM CDT SAT APR 25 2015

NOTE: "FAIR" INDICATES FEW OR NO CLOUDS BELOW 12,000 FEET WITH NO
       SIGNIFICANT WEATHER AND/OR OBSTRUCTIONS TO VISIBILITY.
       CURRENT SKY AND/OR WEATHER CONDITIONS ARE NOT AVAILABLE FOR
       CHILLICOTHE AND FARMINGTON.

MOZ001>031-035>038-043-044-053-054-252300-
...NORTHERN AND WESTERN MISSOURI...

CITY           SKY/WX    TMP DP  RH WIND       PRES   REMARKS
KANSAS CTY INT CLOUDY    53  51  93 N10       29.65R
KANSAS C DTWN  CLOUDY    56  51  84 N14       29.64R
LEE`S SUMMIT   CLOUDY    56  52  86 N17       29.63R
ST JOSEPH      CLOUDY    51  47  86 N15       29.68R
CHILLICOTHE      N/A     52  49  89 N8G18     29.65R
KIRKSVILLE     CLOUDY    51  50  96 NE20      29.63R

$$
MOZ066>068-077>081-088>096-101>105-252300-
...SOUTHWEST MISSOURI...

CITY           SKY/WX    TMP DP  RH WIND       PRES   REMARKS
SPRINGFIELD    CLOUDY    73  54  51 W18G32    29.56R
JOPLIN         SUNNY     73  55  53 NW18G31   29.58R

$$
MOZ032>034-039>042-045>050-055>058-069>072-252300-
...CENTRAL MISSOURI...

CITY           SKY/WX    TMP DP  RH WIND       PRES   REMARKS
COLUMBIA       LGT RAIN  63  59  88 NW9       29.53R
JEFFERSON CITY CLOUDY    64  56  75 NW8       29.53R
ROLLA          CLOUDY    64  55  72 W13       29.53R
SEDALIA        CLOUDY    60  56  86 N20       29.58R
WHITEMAN AFB   CLOUDY    59  54  83 N16       29.58R
WARRENSBURG    CLOUDY    57  52  82 N13       29.61R
OSAGE BEACH    CLOUDY    66  54  63 W7        29.55R

$$
MOZ051-052-059>065-252300-
...EAST CENTRAL MISSOURI...

CITY           SKY/WX    TMP DP  RH WIND       PRES   REMARKS
ST LOUIS INTL  LGT RAIN  58  54  86 NE10      29.54R FOG
SPIRIT OF STL  LGT RAIN  58  56  93 NE10      29.54R
ST CHARLES     CLOUDY    56  53  90 E10       29.54R

$$
MOZ072>076-082>087-097>100-106>115-252300-
...SOUTH CENTRAL AND SOUTHEAST MISSOURI...

CITY           SKY/WX    TMP DP  RH WIND       PRES   REMARKS
CAPE GIRARDEAU MOSUNNY   79  62  56 SW23G32   29.44S
FARMINGTON     CLOUDY    68  57  68 N10       29.55R
POPLAR BLUFF   MOSUNNY   82  49  31 SW17G24   29.45S
WEST PLAINS    PTSUNNY   77  48  35 NW10G26   29.54R

$$



USA.gov is the U.S. government's official web portal to all federal, state and local government web resources and services.